Weather in Vachi

Russia / Republic of Dagestan     42°04′21″N   47°12′52″E
temp.,
°C
wind,
m/s
gust,
m/s
humid.,
%
clouds,
%
prec.,
mm/h
press.,
hPa
HPBL,
m
11 may, tue
tue1100:00−9ssw438210 0.0 102624
03:00−8ssw43807 0.0 102327
06:00−3ssw43821 0.0 101841
09:00+2ssw129976 0.0 101280
12:00+2ssw3310095 0.0 101269
15:00+4ssw3410082 0.0 1012102
18:00+3sw44896 0.0 101353
21:00+1ssw43780 0.0 101628
12 may, wed
wed1200:00+2ssw53790 0.0 101534
03:00+2ssw53770 0.0 101529
06:00+3sw43790 0.0 101529
09:00+7sw33848 0.0 1014173
12:00+11sw346415 0.0 1014531
15:00+11sw355315 0.1 1014770
18:00+8sw33650 0.0 101638
21:00+4sw53540 0.0 101935
13 may, thu
thu1300:00+5sw53555 0.0 101932
03:00+5sw545534 0.0 101833
06:00+7sw436063 0.0 101840
09:00+14ssw25378 0.0 10161305
12:00+16sw24301 0.0 10152141
15:00+16wsw23300 0.0 10152061
18:00+13ssw00510 0.0 101614
21:00+8sw43485 0.0 102028
14 may, fri
fri1400:00+7sw43461 0.0 102031
03:00+6sw43385 0.0 102026
06:00+9sw33500 0.0 101937
09:00+16sse01311 0.0 10171839
12:00+17ene333595 0.0 10162679
15:00+14e335268 1.3 10181173
18:00+11s3468100 1.8 1019126
21:00+9ssw3269100 2.3 102025
15 may, sat
sat1500:00+7sw33670 0.0 101927
03:00+6sw43650 0.0 101928
06:00+9ssw22600 0.0 101840
09:00+14ne22421 0.0 10161327
12:00+16ne434437 0.4 10162362
15:00+14ene325619 2.1 10161060
18:00
21:00+9wsw2168100 2.1 102011